星链-35718(STARLINK-35718)

导读 | 豆包AI

STARLINK-35718是美国星链计划的低轨通信卫星,于2025年12月4日发射入轨,隶属于SpaceX公司打造的星链卫星互联网星座。该卫星延续星链星座设计,旨在为全球范围用户提供高速低延迟的互联网接入服务,补网增强星座覆盖与通信容量,推进全球无缝互联的布局。

Basic Information
目录编号:
66894
目录名称:
STARLINK-35718
国际标识:
2025-283S
轨道中心:
EARTH
卫星名称:
星链-35718
卫星全名:
星链-35718(STARLINK-35718)
卫星状态:
在轨 (已飞行146 天)
发射日期:
2025-12-04 UTC
国别 :
美国 (US)
星等 :
--
Orbit Information
数据来源 国际轨道数据 AOE轨道数据
星历时间 2026-04-28T20:11:14+0800
17小时前
查看轨道信息
2026-04-24T08:00:00+0800
5天前
查看轨道信息
半长轴 6853.377km 6853.298km
偏心率 0.0001281 0.0001282
轨道倾角 53.159° 53.158°
近地点辐角 78.778° 71.013°
升交点赤经 152.617° 173.555°
平近点角 281.337° 283.129°
近地点 474.362km 474.282km
远地点 476.118km 476.04km
周期 94.106分钟 94.104分钟
每日圈数 15.301918 15.302183
Detailed Information
固有亮度:
5
最大亮度:
2.5
卫星平台:
Starlink V1.0
覆盖范围:
全球
运营商:
太空探索技术公司
运营商所在国:
美国
制造商(研发单位):
太空探索技术公司
制造商所在国:
美国
使用方式:
暂无
Satellite Introduction
Starlink 计划是 SpaceX 推出的全球卫星互联网项目,通过发射低轨道卫星,为全球尤其是偏远地区提供高速、低延迟的互联网服务。自 2019 年起,Starlink 已部署数千颗卫星,旨在缩小全球数字鸿沟,推动互联网普及。该项目还为军事、航空等行业提供通信支持,带来广泛经济效益。
2D Orbit Map
3D Orbit Map
Orbit Altitude Analysis Chart
Orbit Inclination Analysis Chart
Orbit Comprehensive Analysis Chart
View Comprehensive Chart